Year,Month,Day,Hour,Minute,Value (Times are PST for temperature in C)
2020,09,09,00,00,18.20
2020,09,09,00,01,18.20
2020,09,09,00,02,18.10
2020,09,09,00,03,18.10
2020,09,09,00,04,18.10
2020,09,09,00,05,18.10
2020,09,09,00,06,18.00
2020,09,09,00,07,18.00
2020,09,09,00,08,17.90
2020,09,09,00,09,17.90
2020,09,09,00,10,17.90
2020,09,09,00,11,17.80
2020,09,09,00,12,17.80
2020,09,09,00,13,17.80
2020,09,09,00,14,17.70
2020,09,09,00,15,17.70
2020,09,09,00,16,17.70
2020,09,09,00,17,17.70
2020,09,09,00,18,17.60
2020,09,09,00,19,17.60
2020,09,09,00,20,17.60
2020,09,09,00,21,17.50
2020,09,09,00,22,17.50
2020,09,09,00,23,17.40
2020,09,09,00,24,17.40
2020,09,09,00,25,17.40
2020,09,09,00,26,17.30
2020,09,09,00,27,17.30
2020,09,09,00,28,17.30
2020,09,09,00,29,17.30
2020,09,09,00,30,17.20
2020,09,09,00,31,17.20
2020,09,09,00,32,17.20
2020,09,09,00,33,17.20
2020,09,09,00,34,17.10
2020,09,09,00,35,17.10
2020,09,09,00,36,17.10
2020,09,09,00,37,17.10
2020,09,09,00,38,17.00
2020,09,09,00,39,17.00
2020,09,09,00,40,17.00
2020,09,09,00,41,16.90
2020,09,09,00,42,16.90
2020,09,09,00,43,16.90
2020,09,09,00,44,16.90
2020,09,09,00,45,16.80
2020,09,09,00,46,16.80
2020,09,09,00,47,16.80
2020,09,09,00,48,16.80
2020,09,09,00,49,16.70
2020,09,09,00,50,16.70
2020,09,09,00,51,16.70
2020,09,09,00,52,16.70
2020,09,09,00,53,16.60
2020,09,09,00,54,16.60
2020,09,09,00,55,16.60
2020,09,09,00,56,16.60
2020,09,09,00,57,16.60
2020,09,09,00,58,16.50
2020,09,09,00,59,16.50
2020,09,09,01,00,16.50
2020,09,09,01,01,16.50
2020,09,09,01,02,16.50
2020,09,09,01,03,16.40
2020,09,09,01,04,16.40
2020,09,09,01,05,16.40
2020,09,09,01,06,16.40
2020,09,09,01,07,16.40
2020,09,09,01,08,16.40
2020,09,09,01,09,16.40
2020,09,09,01,10,16.40
2020,09,09,01,11,16.40
2020,09,09,01,12,16.40
2020,09,09,01,13,16.40
2020,09,09,01,14,16.40
2020,09,09,01,15,16.30
2020,09,09,01,16,16.30
2020,09,09,01,17,16.30
2020,09,09,01,18,16.30
2020,09,09,01,19,16.30
2020,09,09,01,20,16.30
2020,09,09,01,21,16.30
2020,09,09,01,22,16.30
2020,09,09,01,23,16.20
2020,09,09,01,24,16.20
2020,09,09,01,25,16.20
2020,09,09,01,26,16.20
2020,09,09,01,27,16.20
2020,09,09,01,28,16.20
2020,09,09,01,29,16.10
2020,09,09,01,30,16.10
2020,09,09,01,31,16.10
2020,09,09,01,32,16.10
2020,09,09,01,33,16.10
2020,09,09,01,34,16.10
2020,09,09,01,35,16.00
2020,09,09,01,36,16.00
2020,09,09,01,37,16.00
2020,09,09,01,38,15.90
2020,09,09,01,39,15.90
2020,09,09,01,40,15.90
2020,09,09,01,41,15.90
2020,09,09,01,42,15.90
2020,09,09,01,43,15.90
2020,09,09,01,44,15.90
2020,09,09,01,45,15.90
2020,09,09,01,46,15.90
2020,09,09,01,47,15.90
2020,09,09,01,48,15.90
2020,09,09,01,49,15.80
2020,09,09,01,50,15.80
2020,09,09,01,51,15.80
2020,09,09,01,52,15.90
2020,09,09,01,53,15.90
2020,09,09,01,54,15.90
2020,09,09,01,55,15.90
2020,09,09,01,56,15.90
2020,09,09,01,57,15.90
2020,09,09,01,58,15.90
2020,09,09,01,59,15.90
2020,09,09,02,00,15.80
2020,09,09,02,01,15.80
2020,09,09,02,02,15.80
2020,09,09,02,03,15.80
2020,09,09,02,04,15.80
2020,09,09,02,05,15.80
2020,09,09,02,06,15.80
2020,09,09,02,07,15.80
2020,09,09,02,08,15.80
2020,09,09,02,09,15.80
2020,09,09,02,10,15.80
2020,09,09,02,11,15.80
2020,09,09,02,12,15.80
2020,09,09,02,13,15.80
2020,09,09,02,14,15.70
2020,09,09,02,15,15.70
2020,09,09,02,16,15.70
2020,09,09,02,17,15.70
2020,09,09,02,18,15.70
2020,09,09,02,19,15.70
2020,09,09,02,20,15.70
2020,09,09,02,21,15.70
2020,09,09,02,22,15.70
2020,09,09,02,23,15.70
2020,09,09,02,24,15.70
2020,09,09,02,25,15.60
2020,09,09,02,26,15.60
2020,09,09,02,27,15.60
2020,09,09,02,28,15.60
2020,09,09,02,29,15.60
2020,09,09,02,30,15.60
2020,09,09,02,31,15.60
2020,09,09,02,32,15.60
2020,09,09,02,33,15.60
2020,09,09,02,34,15.50
2020,09,09,02,35,15.50
2020,09,09,02,36,15.50
2020,09,09,02,37,15.50
2020,09,09,02,38,15.50
2020,09,09,02,39,15.50
2020,09,09,02,40,15.40
2020,09,09,02,41,15.40
2020,09,09,02,42,15.40
2020,09,09,02,43,15.40
2020,09,09,02,44,15.40
2020,09,09,02,45,15.40
2020,09,09,02,46,15.40
2020,09,09,02,47,15.40
2020,09,09,02,48,15.30
2020,09,09,02,49,15.30
2020,09,09,02,50,15.30
2020,09,09,02,51,15.30
2020,09,09,02,52,15.30
2020,09,09,02,53,15.30
2020,09,09,02,54,15.30
2020,09,09,02,55,15.30
2020,09,09,02,56,15.30
2020,09,09,02,57,15.30
2020,09,09,02,58,15.20
2020,09,09,02,59,15.20
2020,09,09,03,00,15.20
2020,09,09,03,01,15.20
2020,09,09,03,02,15.20
2020,09,09,03,03,15.20
2020,09,09,03,04,15.20
2020,09,09,03,05,15.20
2020,09,09,03,06,15.20
2020,09,09,03,07,15.20
2020,09,09,03,08,15.20
2020,09,09,03,09,15.20
2020,09,09,03,10,15.10
2020,09,09,03,11,15.10
2020,09,09,03,12,15.10
2020,09,09,03,13,15.10
2020,09,09,03,14,15.10
2020,09,09,03,15,15.10
2020,09,09,03,16,15.10
2020,09,09,03,17,15.10
2020,09,09,03,18,15.10
2020,09,09,03,19,15.10
2020,09,09,03,20,15.10
2020,09,09,03,21,15.10
2020,09,09,03,22,15.10
2020,09,09,03,23,15.10
2020,09,09,03,24,15.10
2020,09,09,03,25,15.10
2020,09,09,03,26,15.10
2020,09,09,03,27,15.10
2020,09,09,03,28,15.10
2020,09,09,03,29,15.10
2020,09,09,03,30,15.10
2020,09,09,03,31,15.10
2020,09,09,03,32,15.10
2020,09,09,03,33,15.10
2020,09,09,03,34,15.10
2020,09,09,03,35,15.10
2020,09,09,03,36,15.10
2020,09,09,03,37,15.10
2020,09,09,03,38,15.10
2020,09,09,03,39,15.10
2020,09,09,03,40,15.10
2020,09,09,03,41,15.10
2020,09,09,03,42,15.10
2020,09,09,03,43,15.10
2020,09,09,03,44,15.10
2020,09,09,03,45,15.10
2020,09,09,03,46,15.10
2020,09,09,03,47,15.10
2020,09,09,03,48,15.10
2020,09,09,03,49,15.10
2020,09,09,03,50,15.10
2020,09,09,03,51,15.10
2020,09,09,03,52,15.10
2020,09,09,03,53,15.10
2020,09,09,03,54,15.10
2020,09,09,03,55,15.10
2020,09,09,03,56,15.10
2020,09,09,03,57,15.10
2020,09,09,03,58,15.10
2020,09,09,03,59,15.10
2020,09,09,04,00,15.10
2020,09,09,04,01,15.10
2020,09,09,04,02,15.10
2020,09,09,04,03,15.10
2020,09,09,04,04,15.10
2020,09,09,04,05,15.10
2020,09,09,04,06,15.10
2020,09,09,04,07,15.00
2020,09,09,04,08,15.00
2020,09,09,04,09,15.00
2020,09,09,04,10,15.00
2020,09,09,04,11,15.00
2020,09,09,04,12,15.00
2020,09,09,04,13,15.00
2020,09,09,04,14,15.00
2020,09,09,04,15,15.00
2020,09,09,04,16,15.00
2020,09,09,04,17,15.00
2020,09,09,04,18,14.90
2020,09,09,04,19,15.00
2020,09,09,04,20,14.90
2020,09,09,04,21,14.90
2020,09,09,04,22,14.90
2020,09,09,04,23,14.90
2020,09,09,04,24,14.90
2020,09,09,04,25,14.90
2020,09,09,04,26,14.90
2020,09,09,04,27,14.90
2020,09,09,04,28,14.90
2020,09,09,04,29,14.90
2020,09,09,04,30,14.90
2020,09,09,04,31,14.90
2020,09,09,04,32,14.90
2020,09,09,04,33,14.90
2020,09,09,04,34,14.90
2020,09,09,04,35,14.90
2020,09,09,04,36,14.90
2020,09,09,04,37,14.90
2020,09,09,04,38,14.90
2020,09,09,04,39,14.90
2020,09,09,04,40,14.90
2020,09,09,04,41,14.90
2020,09,09,04,42,14.90
2020,09,09,04,43,14.90
2020,09,09,04,44,14.90
2020,09,09,04,45,14.90
2020,09,09,04,46,14.90
2020,09,09,04,47,14.90
2020,09,09,04,48,14.90
2020,09,09,04,49,14.90
2020,09,09,04,50,14.90
2020,09,09,04,51,14.90
2020,09,09,04,52,14.90
2020,09,09,04,53,14.90
2020,09,09,04,54,14.90
2020,09,09,04,55,14.90
2020,09,09,04,56,14.90
2020,09,09,04,57,14.90
2020,09,09,04,58,14.90
2020,09,09,04,59,14.90
2020,09,09,05,00,14.90
2020,09,09,05,01,14.90
2020,09,09,05,02,14.90
2020,09,09,05,03,14.90
2020,09,09,05,04,14.90
2020,09,09,05,05,14.90
2020,09,09,05,06,14.90
2020,09,09,05,07,14.90
2020,09,09,05,08,14.90
2020,09,09,05,09,14.90
2020,09,09,05,10,14.90
2020,09,09,05,11,14.90
2020,09,09,05,12,14.90
2020,09,09,05,13,14.90
2020,09,09,05,14,14.90
2020,09,09,05,15,14.90
2020,09,09,05,16,14.90
2020,09,09,05,17,14.90
2020,09,09,05,18,14.90
2020,09,09,05,19,14.90
2020,09,09,05,20,14.90
2020,09,09,05,21,14.90
2020,09,09,05,22,14.90
2020,09,09,05,23,14.90
2020,09,09,05,24,14.90
2020,09,09,05,25,14.90
2020,09,09,05,26,14.90
2020,09,09,05,27,15.00
2020,09,09,05,28,15.00
2020,09,09,05,29,15.00
2020,09,09,05,30,15.00
2020,09,09,05,31,15.00
2020,09,09,05,32,15.00
2020,09,09,05,33,15.00
2020,09,09,05,34,15.10
2020,09,09,05,35,15.10
2020,09,09,05,36,15.10
2020,09,09,05,37,15.10
2020,09,09,05,38,15.20
2020,09,09,05,39,15.30
2020,09,09,05,40,15.40
2020,09,09,05,41,15.40
2020,09,09,05,42,15.40
2020,09,09,05,43,15.50
2020,09,09,05,44,15.50
2020,09,09,05,45,15.50
2020,09,09,05,46,15.60
2020,09,09,05,47,15.60
2020,09,09,05,48,15.60
2020,09,09,05,49,15.60
2020,09,09,05,50,15.60
2020,09,09,05,51,15.60
2020,09,09,05,52,15.60
2020,09,09,05,53,15.60
2020,09,09,05,54,15.60
2020,09,09,05,55,15.60
2020,09,09,05,56,15.50
2020,09,09,05,57,15.50
2020,09,09,05,58,15.50
2020,09,09,05,59,15.50
2020,09,09,06,00,15.50
2020,09,09,06,01,15.50
2020,09,09,06,02,15.50
2020,09,09,06,03,15.50
2020,09,09,06,04,15.50
2020,09,09,06,05,15.50
2020,09,09,06,06,15.50
2020,09,09,06,07,15.50
2020,09,09,06,08,15.50
2020,09,09,06,09,15.50
2020,09,09,06,10,15.50
2020,09,09,06,11,15.50
2020,09,09,06,12,15.40
2020,09,09,06,13,15.40
2020,09,09,06,14,15.40
2020,09,09,06,15,15.40
2020,09,09,06,16,15.40
2020,09,09,06,17,15.40
2020,09,09,06,18,15.40
2020,09,09,06,19,15.40
2020,09,09,06,20,15.40
2020,09,09,06,21,15.40
2020,09,09,06,22,15.40
2020,09,09,06,23,15.40
2020,09,09,06,24,15.40
2020,09,09,06,25,15.30
2020,09,09,06,26,15.30
2020,09,09,06,27,15.30
2020,09,09,06,28,15.30
2020,09,09,06,29,15.30
2020,09,09,06,30,15.30
2020,09,09,06,31,15.30
2020,09,09,06,32,15.20
2020,09,09,06,33,15.20
2020,09,09,06,34,15.20
2020,09,09,06,35,15.20
2020,09,09,06,36,15.20
2020,09,09,06,37,15.20
2020,09,09,06,38,15.20
2020,09,09,06,39,15.10
2020,09,09,06,40,15.10
2020,09,09,06,41,15.10
2020,09,09,06,42,15.10
2020,09,09,06,43,15.10
2020,09,09,06,44,15.10
2020,09,09,06,45,15.00
2020,09,09,06,46,15.00
2020,09,09,06,47,15.00
2020,09,09,06,48,15.00
2020,09,09,06,49,14.90
2020,09,09,06,50,14.90
2020,09,09,06,51,14.90
2020,09,09,06,52,14.90
2020,09,09,06,53,14.90
2020,09,09,06,54,14.90
2020,09,09,06,55,14.90
2020,09,09,06,56,14.90
2020,09,09,06,57,14.80
2020,09,09,06,58,14.80
2020,09,09,06,59,14.80
2020,09,09,07,00,14.80
2020,09,09,07,01,14.80
2020,09,09,07,02,14.80
2020,09,09,07,03,14.80
2020,09,09,07,04,14.80
2020,09,09,07,05,14.80
2020,09,09,07,06,14.80
2020,09,09,07,07,14.80
2020,09,09,07,08,14.80
2020,09,09,07,09,14.80
2020,09,09,07,10,14.80
2020,09,09,07,11,14.80
2020,09,09,07,12,14.80
2020,09,09,07,13,14.80
2020,09,09,07,14,14.80
2020,09,09,07,15,14.80
2020,09,09,07,16,14.80
2020,09,09,07,17,14.80
2020,09,09,07,18,14.80
2020,09,09,07,19,14.80
2020,09,09,07,20,14.80
2020,09,09,07,21,14.80
2020,09,09,07,22,14.80
2020,09,09,07,23,14.80
2020,09,09,07,24,14.80
2020,09,09,07,25,14.80
2020,09,09,07,26,14.80
2020,09,09,07,27,14.80
2020,09,09,07,28,14.80
2020,09,09,07,29,14.80
2020,09,09,07,30,14.80
2020,09,09,07,31,14.80
2020,09,09,07,32,14.80
2020,09,09,07,33,14.90
2020,09,09,07,34,14.90
2020,09,09,07,35,14.90
2020,09,09,07,36,14.90
2020,09,09,07,37,14.90
2020,09,09,07,38,14.90
2020,09,09,07,39,14.90
2020,09,09,07,40,14.90
2020,09,09,07,41,14.90
2020,09,09,07,42,14.90
2020,09,09,07,43,14.90
2020,09,09,07,44,14.90
2020,09,09,07,45,14.90
2020,09,09,07,46,14.90
2020,09,09,07,47,14.90
2020,09,09,07,48,15.00
2020,09,09,07,49,15.00
2020,09,09,07,50,15.00
2020,09,09,07,51,15.00
2020,09,09,07,52,15.00
2020,09,09,07,53,15.00
2020,09,09,07,54,15.00
2020,09,09,07,55,15.10
2020,09,09,07,56,15.00
2020,09,09,07,57,15.10
2020,09,09,07,58,15.10
2020,09,09,07,59,15.10
2020,09,09,08,00,15.00
2020,09,09,08,01,15.00
2020,09,09,08,02,15.00
2020,09,09,08,03,15.10
2020,09,09,08,04,15.00
2020,09,09,08,05,15.00
2020,09,09,08,06,15.00
2020,09,09,08,07,15.00
2020,09,09,08,08,15.00
2020,09,09,08,09,15.10
2020,09,09,08,10,15.10
2020,09,09,08,11,15.10
2020,09,09,08,12,15.10
2020,09,09,08,13,15.10
2020,09,09,08,14,15.10
2020,09,09,08,15,15.10
2020,09,09,08,16,15.10
2020,09,09,08,17,15.10
2020,09,09,08,18,15.10
2020,09,09,08,19,15.10
2020,09,09,08,20,15.10
2020,09,09,08,21,15.10
2020,09,09,08,22,15.10
2020,09,09,08,23,15.10
2020,09,09,08,24,15.10
2020,09,09,08,25,15.10
2020,09,09,08,26,15.10
2020,09,09,08,27,15.10
2020,09,09,08,28,15.10
2020,09,09,08,29,15.10
2020,09,09,08,30,15.10
2020,09,09,08,31,15.10
2020,09,09,08,32,15.10
2020,09,09,08,33,15.20
2020,09,09,08,34,15.20
2020,09,09,08,35,15.20
2020,09,09,08,36,15.20
2020,09,09,08,37,15.20
2020,09,09,08,38,15.20
2020,09,09,08,39,15.20
2020,09,09,08,40,15.20
2020,09,09,08,41,15.20
2020,09,09,08,42,15.20
2020,09,09,08,43,15.20
2020,09,09,08,44,15.20
2020,09,09,08,45,15.20
2020,09,09,08,46,15.30
2020,09,09,08,47,15.30
2020,09,09,08,48,15.30
2020,09,09,08,49,15.30
2020,09,09,08,50,15.40
2020,09,09,08,51,15.40
2020,09,09,08,52,15.40
2020,09,09,08,53,15.40
2020,09,09,08,54,15.50
2020,09,09,08,55,15.50
2020,09,09,08,56,15.50
2020,09,09,08,57,15.50
2020,09,09,08,58,15.60
2020,09,09,08,59,15.70
2020,09,09,09,00,15.70
2020,09,09,09,01,15.70
2020,09,09,09,02,15.70
2020,09,09,09,03,15.80
2020,09,09,09,04,15.80
2020,09,09,09,05,15.80
2020,09,09,09,06,15.90
2020,09,09,09,07,15.90
2020,09,09,09,08,15.90
2020,09,09,09,09,15.90
2020,09,09,09,10,15.90
2020,09,09,09,11,16.00
2020,09,09,09,12,16.00
2020,09,09,09,13,16.00
2020,09,09,09,14,16.10
2020,09,09,09,15,16.20
2020,09,09,09,16,16.30
2020,09,09,09,17,16.30
2020,09,09,09,18,16.40
2020,09,09,09,19,16.50
2020,09,09,09,20,16.50
2020,09,09,09,21,16.60
2020,09,09,09,22,16.60
2020,09,09,09,23,16.70
2020,09,09,09,24,16.70
2020,09,09,09,25,16.70
2020,09,09,09,26,16.70
2020,09,09,09,27,16.70
2020,09,09,09,28,16.80
2020,09,09,09,29,16.80
2020,09,09,09,30,16.80
2020,09,09,09,31,16.80
2020,09,09,09,32,16.80
2020,09,09,09,33,16.80
2020,09,09,09,34,16.80
2020,09,09,09,35,16.90
2020,09,09,09,36,16.90
2020,09,09,09,37,16.90
2020,09,09,09,38,16.90
2020,09,09,09,39,16.90
2020,09,09,09,40,17.00
2020,09,09,09,41,17.00
2020,09,09,09,42,17.00
2020,09,09,09,43,17.00
2020,09,09,09,44,17.10
2020,09,09,09,45,17.10
2020,09,09,09,46,17.10
2020,09,09,09,47,17.10
2020,09,09,09,48,17.10
2020,09,09,09,49,17.10
2020,09,09,09,50,17.20
2020,09,09,09,51,17.20
2020,09,09,09,52,17.20
2020,09,09,09,53,17.30
2020,09,09,09,54,17.30
2020,09,09,09,55,17.30
2020,09,09,09,56,17.40
2020,09,09,09,57,17.40
2020,09,09,09,58,17.40
2020,09,09,09,59,17.40
2020,09,09,10,00,17.50
2020,09,09,10,01,17.50
2020,09,09,10,02,17.60
2020,09,09,10,03,17.60
2020,09,09,10,04,17.60
2020,09,09,10,05,17.70
2020,09,09,10,06,17.70
2020,09,09,10,07,17.70
2020,09,09,10,08,17.80
2020,09,09,10,09,17.80
2020,09,09,10,10,17.90
2020,09,09,10,11,17.90
2020,09,09,10,12,18.00
2020,09,09,10,13,18.00
2020,09,09,10,14,18.00
2020,09,09,10,15,18.10
2020,09,09,10,16,18.20
2020,09,09,10,17,18.20
2020,09,09,10,18,18.30
2020,09,09,10,19,18.30
2020,09,09,10,20,18.40
2020,09,09,10,21,18.40
2020,09,09,10,22,18.50
2020,09,09,10,23,18.60
2020,09,09,10,24,18.60
2020,09,09,10,25,18.70
2020,09,09,10,26,18.80
2020,09,09,10,27,18.80
2020,09,09,10,28,18.90
2020,09,09,10,29,18.90
2020,09,09,10,30,19.00
2020,09,09,10,31,19.00
2020,09,09,10,32,19.10
2020,09,09,10,33,19.10
2020,09,09,10,34,19.10
2020,09,09,10,35,19.20
2020,09,09,10,36,19.20
2020,09,09,10,37,19.20
2020,09,09,10,38,19.30
2020,09,09,10,39,19.30
2020,09,09,10,40,19.30
2020,09,09,10,41,19.30
2020,09,09,10,42,19.40
2020,09,09,10,43,19.40
2020,09,09,10,44,19.40
2020,09,09,10,45,19.40
2020,09,09,10,46,19.50
2020,09,09,10,47,19.50
2020,09,09,10,48,19.60
2020,09,09,10,49,19.60
2020,09,09,10,50,19.60
2020,09,09,10,51,19.70
2020,09,09,10,52,19.70
2020,09,09,10,53,19.70
2020,09,09,10,54,19.70
2020,09,09,10,55,19.80
2020,09,09,10,56,19.80
2020,09,09,10,57,19.80
2020,09,09,10,58,19.80
2020,09,09,10,59,19.90
2020,09,09,11,00,19.90
2020,09,09,11,01,19.90
2020,09,09,11,02,20.00
2020,09,09,11,03,20.00
2020,09,09,11,04,20.00
2020,09,09,11,05,20.10
2020,09,09,11,06,20.10
2020,09,09,11,07,20.10
2020,09,09,11,08,20.20
2020,09,09,11,09,20.20
2020,09,09,11,10,20.20
2020,09,09,11,11,20.30
2020,09,09,11,12,20.30
2020,09,09,11,13,20.30
2020,09,09,11,14,20.30
2020,09,09,11,15,20.30
2020,09,09,11,16,20.40
2020,09,09,11,17,20.40
2020,09,09,11,18,20.40
2020,09,09,11,19,20.40
2020,09,09,11,20,20.40
2020,09,09,11,21,20.40
2020,09,09,11,22,20.50
2020,09,09,11,23,20.50
2020,09,09,11,24,20.60
2020,09,09,11,25,20.60
2020,09,09,11,26,20.60
2020,09,09,11,27,20.70
2020,09,09,11,28,20.70
2020,09,09,11,29,20.70
2020,09,09,11,30,20.80
2020,09,09,11,31,20.80
2020,09,09,11,32,20.80
2020,09,09,11,33,20.90
2020,09,09,11,34,20.90
2020,09,09,11,35,21.00
2020,09,09,11,36,21.00
2020,09,09,11,37,21.10
2020,09,09,11,38,21.10
2020,09,09,11,39,21.10
2020,09,09,11,40,21.10
2020,09,09,11,41,21.20
2020,09,09,11,42,21.20
2020,09,09,11,43,21.20
2020,09,09,11,44,21.30
2020,09,09,11,45,21.30
2020,09,09,11,46,21.30
2020,09,09,11,47,21.40
2020,09,09,11,48,21.40
2020,09,09,11,49,21.40
2020,09,09,11,50,21.40
2020,09,09,11,51,21.50
2020,09,09,11,52,21.50
2020,09,09,11,53,21.60
2020,09,09,11,54,21.60
2020,09,09,11,55,21.60
2020,09,09,11,56,21.70
2020,09,09,11,57,21.70
2020,09,09,11,58,21.70
2020,09,09,11,59,21.70
2020,09,09,12,00,21.70
2020,09,09,12,01,21.80
2020,09,09,12,02,21.80
2020,09,09,12,03,21.80
2020,09,09,12,04,21.80
2020,09,09,12,05,21.80
2020,09,09,12,06,21.80
2020,09,09,12,07,21.80
2020,09,09,12,08,21.80
2020,09,09,12,09,21.80
2020,09,09,12,10,21.80
2020,09,09,12,11,21.80
2020,09,09,12,12,21.80
2020,09,09,12,13,21.90
2020,09,09,12,14,21.90
2020,09,09,12,15,21.90
2020,09,09,12,16,21.90
2020,09,09,12,17,22.00
2020,09,09,12,18,22.00
2020,09,09,12,19,22.00
2020,09,09,12,20,22.10
2020,09,09,12,21,22.10
2020,09,09,12,22,22.10
2020,09,09,12,23,22.10
2020,09,09,12,24,22.10
2020,09,09,12,25,22.10
2020,09,09,12,26,22.10
2020,09,09,12,27,22.10
2020,09,09,12,28,22.20
2020,09,09,12,29,22.20
2020,09,09,12,30,22.20
2020,09,09,12,31,22.20
2020,09,09,12,32,22.20
2020,09,09,12,33,22.30
2020,09,09,12,34,22.30
2020,09,09,12,35,22.30
2020,09,09,12,36,22.30
2020,09,09,12,37,22.40
2020,09,09,12,38,22.40
2020,09,09,12,39,22.40
2020,09,09,12,40,22.50
2020,09,09,12,41,22.50
2020,09,09,12,42,22.60
2020,09,09,12,43,22.60
2020,09,09,12,44,22.70
2020,09,09,12,45,22.70
2020,09,09,12,46,22.80
2020,09,09,12,47,22.80
2020,09,09,12,48,22.90
2020,09,09,12,49,23.00
2020,09,09,12,50,23.00
2020,09,09,12,51,23.10
2020,09,09,12,52,23.20
2020,09,09,12,53,23.20
2020,09,09,12,54,23.30
2020,09,09,12,55,23.40
2020,09,09,12,56,23.40
2020,09,09,12,57,23.50
2020,09,09,12,58,23.50
2020,09,09,12,59,23.60
2020,09,09,13,00,23.60
2020,09,09,13,01,23.60
2020,09,09,13,02,23.70
2020,09,09,13,03,23.70
2020,09,09,13,04,23.70
2020,09,09,13,05,23.70
2020,09,09,13,06,23.70
2020,09,09,13,07,23.70
2020,09,09,13,08,23.80
2020,09,09,13,09,23.80
2020,09,09,13,10,23.80
2020,09,09,13,11,23.80
2020,09,09,13,12,23.90
2020,09,09,13,13,24.00
2020,09,09,13,14,24.00
2020,09,09,13,15,24.10
2020,09,09,13,16,24.10
2020,09,09,13,17,24.10
2020,09,09,13,18,24.20
2020,09,09,13,19,24.20
2020,09,09,13,20,24.30
2020,09,09,13,21,24.30
2020,09,09,13,22,24.30
2020,09,09,13,23,24.40
2020,09,09,13,24,24.40
2020,09,09,13,25,24.50
2020,09,09,13,26,24.50
2020,09,09,13,27,24.50
2020,09,09,13,28,24.50
2020,09,09,13,29,24.50
2020,09,09,13,30,24.50
2020,09,09,13,31,24.50
2020,09,09,13,32,24.50
2020,09,09,13,33,24.50
2020,09,09,13,34,24.60
2020,09,09,13,35,24.60
2020,09,09,13,36,24.60
2020,09,09,13,37,24.60
2020,09,09,13,38,24.70
2020,09,09,13,39,24.70
2020,09,09,13,40,24.80
2020,09,09,13,41,24.80
2020,09,09,13,42,24.90
2020,09,09,13,43,24.90
2020,09,09,13,44,24.90
2020,09,09,13,45,25.00
2020,09,09,13,46,25.00
2020,09,09,13,47,25.00
2020,09,09,13,48,25.10
2020,09,09,13,49,25.10
2020,09,09,13,50,25.20
2020,09,09,13,51,25.20
2020,09,09,13,52,25.20
2020,09,09,13,53,25.20
2020,09,09,13,54,25.20
2020,09,09,13,55,25.20
2020,09,09,13,56,25.30
2020,09,09,13,57,25.30
2020,09,09,13,58,25.30
2020,09,09,13,59,25.30
2020,09,09,14,00,25.30
2020,09,09,14,01,25.30
2020,09,09,14,02,25.30
2020,09,09,14,03,25.30
2020,09,09,14,04,25.30
2020,09,09,14,05,25.30
2020,09,09,14,06,25.30
2020,09,09,14,07,25.20
2020,09,09,14,08,25.20
2020,09,09,14,09,25.20
2020,09,09,14,10,25.20
2020,09,09,14,11,25.20
2020,09,09,14,12,25.20
2020,09,09,14,13,25.20
2020,09,09,14,14,25.20
2020,09,09,14,15,25.20
2020,09,09,14,16,25.20
2020,09,09,14,17,25.10
2020,09,09,14,18,25.10
2020,09,09,14,19,25.10
2020,09,09,14,20,25.00
2020,09,09,14,21,25.00
2020,09,09,14,22,25.00
2020,09,09,14,23,24.90
2020,09,09,14,24,24.90
2020,09,09,14,25,24.90
2020,09,09,14,26,24.90
2020,09,09,14,27,24.90
2020,09,09,14,28,24.90
2020,09,09,14,29,24.80
2020,09,09,14,30,24.80
2020,09,09,14,31,24.80
2020,09,09,14,32,24.80
2020,09,09,14,33,24.80
2020,09,09,14,34,24.80
2020,09,09,14,35,24.80
2020,09,09,14,36,24.80
2020,09,09,14,37,24.80
2020,09,09,14,38,24.80
2020,09,09,14,39,24.70
2020,09,09,14,40,24.70
2020,09,09,14,41,24.70
2020,09,09,14,42,24.80
2020,09,09,14,43,24.80
2020,09,09,14,44,24.80
2020,09,09,14,45,24.80
2020,09,09,14,46,24.80
2020,09,09,14,47,24.90
2020,09,09,14,48,24.90
2020,09,09,14,49,24.90
2020,09,09,14,50,25.00
2020,09,09,14,51,25.00
2020,09,09,14,52,25.10
2020,09,09,14,53,25.10
2020,09,09,14,54,25.10
2020,09,09,14,55,25.20
2020,09,09,14,56,25.20
2020,09,09,14,57,25.20
2020,09,09,14,58,25.30
2020,09,09,14,59,25.30
2020,09,09,15,00,25.30
2020,09,09,15,01,25.30
2020,09,09,15,02,25.30
2020,09,09,15,03,25.30
2020,09,09,15,04,25.40
2020,09,09,15,05,25.40
2020,09,09,15,06,25.40
2020,09,09,15,07,25.30
2020,09,09,15,08,25.30
2020,09,09,15,09,25.30
2020,09,09,15,10,25.30
2020,09,09,15,11,25.30
2020,09,09,15,12,25.30
2020,09,09,15,13,25.30
2020,09,09,15,14,25.40
2020,09,09,15,15,25.40
2020,09,09,15,16,25.40
2020,09,09,15,17,25.40
2020,09,09,15,18,25.50
2020,09,09,15,19,25.50
2020,09,09,15,20,25.60
2020,09,09,15,21,25.60
2020,09,09,15,22,25.60
2020,09,09,15,23,25.70
2020,09,09,15,24,25.80
2020,09,09,15,25,25.80
2020,09,09,15,26,25.90
2020,09,09,15,27,25.90
2020,09,09,15,28,26.00
2020,09,09,15,29,26.10
2020,09,09,15,30,26.10
2020,09,09,15,31,26.20
2020,09,09,15,32,26.30
2020,09,09,15,33,26.40
2020,09,09,15,34,26.40
2020,09,09,15,35,26.50
2020,09,09,15,36,26.50
2020,09,09,15,37,26.60
2020,09,09,15,38,26.70
2020,09,09,15,39,26.70
2020,09,09,15,40,26.80
2020,09,09,15,41,26.80
2020,09,09,15,42,26.90
2020,09,09,15,43,26.90
2020,09,09,15,44,27.00
2020,09,09,15,45,27.00
2020,09,09,15,46,27.00
2020,09,09,15,47,27.00
2020,09,09,15,48,27.10
2020,09,09,15,49,27.10
2020,09,09,15,50,27.10
2020,09,09,15,51,27.10
2020,09,09,15,52,27.10
2020,09,09,15,53,27.10
2020,09,09,15,54,27.10
2020,09,09,15,55,27.10
2020,09,09,15,56,27.00
2020,09,09,15,57,27.10
2020,09,09,15,58,27.10
2020,09,09,15,59,27.10
2020,09,09,16,00,27.10
2020,09,09,16,01,27.10
2020,09,09,16,02,27.10
2020,09,09,16,03,27.00
2020,09,09,16,04,27.00
2020,09,09,16,05,26.90
2020,09,09,16,06,26.90
2020,09,09,16,07,26.90
2020,09,09,16,08,26.90
2020,09,09,16,09,26.80
2020,09,09,16,10,26.80
2020,09,09,16,11,26.80
2020,09,09,16,12,26.80
2020,09,09,16,13,26.80
2020,09,09,16,14,26.70
2020,09,09,16,15,26.70
2020,09,09,16,16,26.60
2020,09,09,16,17,26.60
2020,09,09,16,18,26.60
2020,09,09,16,19,26.60
2020,09,09,16,20,26.50
2020,09,09,16,21,26.50
2020,09,09,16,22,26.50
2020,09,09,16,23,26.40
2020,09,09,16,24,26.40
2020,09,09,16,25,26.40
2020,09,09,16,26,26.40
2020,09,09,16,27,26.40
2020,09,09,16,28,26.40
2020,09,09,16,29,26.50
2020,09,09,16,30,26.50
2020,09,09,16,31,26.60
2020,09,09,16,32,26.60
2020,09,09,16,33,26.60
2020,09,09,16,34,26.60
2020,09,09,16,35,26.60
2020,09,09,16,36,26.60
2020,09,09,16,37,26.60
2020,09,09,16,38,26.60
2020,09,09,16,39,26.60
2020,09,09,16,40,26.70
2020,09,09,16,41,26.70
2020,09,09,16,42,26.70
2020,09,09,16,43,26.70
2020,09,09,16,44,26.70
2020,09,09,16,45,26.70
2020,09,09,16,46,26.70
2020,09,09,16,47,26.70
2020,09,09,16,48,26.70
2020,09,09,16,49,26.70
2020,09,09,16,50,26.60
2020,09,09,16,51,26.60
2020,09,09,16,52,26.60
2020,09,09,16,53,26.50
2020,09,09,16,54,26.50
2020,09,09,16,55,26.40
2020,09,09,16,56,26.40
2020,09,09,16,57,26.30
2020,09,09,16,58,26.30
2020,09,09,16,59,26.20
2020,09,09,17,00,26.20
2020,09,09,17,01,26.20
2020,09,09,17,02,26.10
2020,09,09,17,03,26.10
2020,09,09,17,04,26.10
2020,09,09,17,05,26.00
2020,09,09,17,06,26.00
2020,09,09,17,07,25.90
2020,09,09,17,08,25.90
2020,09,09,17,09,25.90
2020,09,09,17,10,25.80
2020,09,09,17,11,25.80
2020,09,09,17,12,25.70
2020,09,09,17,13,25.70
2020,09,09,17,14,25.70
2020,09,09,17,15,25.60
2020,09,09,17,16,25.60
2020,09,09,17,17,25.50
2020,09,09,17,18,25.50
2020,09,09,17,19,25.40